Location: Mentone
(34.5413°N, 85.5351°W)
Time: 12:41:08
(UTC-05:00)

Okean O Rocket - Visible Passes

Search period start: 28 March 2017 00:00
Search period end: 07 April 2017 00:00
Orbit: 623 x 645 km, 98.1° (Epoch: 26 March)

Date Brightness Start Highest point End Pass type
(mag) Time Alt. Az. Time Alt. Az. Time Alt. Az.
28 Mar 3.0 03:57:07 10° NNE 04:00:45 36° E 04:00:45 36° E visible
28 Mar 3.2 05:34:26 10° NNW 05:37:18 17° WNW 05:38:13 16° W visible
29 Mar 1.9 04:18:32 10° NNE 04:22:51 67° E 04:22:51 67° E visible
30 Mar 1.5 04:40:13 10° N 04:44:39 67° WNW 04:44:56 64° WSW visible
31 Mar 4.2 03:26:58 10° NE 03:29:34 16° E 03:29:34 16° E visible
31 Mar 2.2 05:02:08 10° N 05:06:14 37° WNW 05:07:02 34° W visible
01 Apr 3.3 03:47:43 10° NE 03:51:36 28° E 03:51:39 28° E visible
01 Apr 3.0 05:24:22 10° NNW 05:27:46 22° WNW 05:29:07 19° W visible
02 Apr 2.3 04:08:59 10° NNE 04:13:21 51° E 04:13:44 49° ESE visible
02 Apr 3.5 05:47:16 10° NW 05:49:13 13° WNW 05:51:10 10° W visible
03 Apr 1.5 04:30:33 10° NNE 04:35:01 87° WNW 04:35:49 60° SSW visible
04 Apr 4.4 03:18:11 10° ENE 03:20:04 12° E 03:20:26 12° E visible
04 Apr 1.9 04:52:21 10° N 04:56:39 48° WNW 04:57:54 37° WSW visible
05 Apr 3.7 03:38:25 10° NE 03:41:54 22° E 03:42:30 21° ESE visible
05 Apr 2.6 05:14:25 10° NNW 05:18:12 28° WNW 05:19:59 21° WSW visible
06 Apr 2.8 03:59:29 10° NNE 04:03:41 39° E 04:04:36 35° SE visible
06 Apr 3.3 05:36:55 10° NNW 05:39:42 16° WNW 05:42:04 11° WSW visible
